User: anonymous   Login
Location: Homewood
(41.1836°S, 175.9581°E)
Time: 15:18:29
(UTC+00:00)
Language:

Milstar 3 Cent rocket - Orbit

View from above orbital plane
View from above orbital plane
View from above satellite
View from above satellite

Ground track
Ground track

The orbit data is extracted from the following two-line orbital elements,

1 25725U 99023B   24165.68818660  .00000129  00000-0  18529-3 0  9995
2 25725  28.3164 243.5944 2383098 191.0261 162.7242  9.67339074185951
Epoch (UTC): 13 June 2024 16:30:59
Eccentricity: 0.2383098
inclination: 28.3164°
perigee height: 709 km
apogee height: 5143 km
right ascension of ascending node: 243.5944°
argument of perigee: 191.0261°
revolutions per day: 9.67339074
mean anomaly at epoch: 162.7242°
orbit number at epoch: 18595

The dashed part of the orbit path shows where the satellite is in the earth's shadow,  

DLR